Voltar ao catálogo

SS 2

AtivoMilitarLEO
NORAD 10544·PAYLOAD·🇺🇸 United States

Lançado Dec 8, 1977 de Vandenberg Space Force Base

Loading…

Próximas Passagens (próximas 24 horas)

TLE

AtualizadoSource: Space-Track

Época: Sep 14, 2026, 00:16 UTC

1 10544U 77112E   26257.01140215  .00000430  00000-0  15763-3 0  9990
2 10544  63.3382  95.2366 0501999 163.6715 198.1198 13.91362852364756

Acompanhe SS 2 em tempo real com AllMySat

Download on the App Store